Погода в Море

США     45°52′31″N   93°17′48″W
темп.,
°C
ветер,
м/с
пор.,
м/с
влажн.,
%
обл.,
%
осадки,
мм/ч
давл.,
гПа
погр.,
м
21 октября, чт
чт2101:00+5ссв71490100 2.9 1014623
04:00+5ссв61283100 1.2 1016701
07:00+1с512784 1.2 1019401
10:00+3с596215 0.0 1021515
13:00+7ссз4639100 0.0 1020936
16:00+8ссз4536100 0.0 10191034
19:00+4ссз3448100 0.0 102082
22:00+3с355499 0.0 1021101
22 октября, пт
пт2201:00+1с236445 0.0 102041
04:000с2269100 0.0 102021
07:00+1с2271100 0.0 102054
10:00+3ссв2363100 0.0 1020317
13:00+7ссв225041 0.0 10181123
16:00+8с224932 0.0 10171301
19:00+4с226867 0.0 101826
22:00+6ссв2456100 0.0 1018143
23 октября, сб
сб2301:00+4св3567100 0.0 1018353
04:00+4св2473100 0.0 1019306
07:00+2св238477 0.0 1019138
10:00+4всв34695 0.0 1020506
13:00+8всв22505 0.0 10181149
16:00+9всв224690 0.0 10161180
19:00+4всв3358100 0.0 101750
22:00+3всв3970100 0.0 1018206
24 октября, вс
вс2401:00+1всв387996 0.0 1018183
04:00+1всв4107982 0.0 1017266
07:00+1в41176100 0.0 1017367
10:00+3в61365100 0.0 1017518
13:00+7в71052100 0.0 1015892
16:00+9в6948100 0.0 10141190
19:00+7всв51152100 0.0 1015845
22:00+5св51066100 0.0 1016673
25 октября, пн
пн2501:00+3всв51090100 2.9 1018635
04:00+2всв51193100 1.4 1019534
07:00+3св4990100 1.5 1020456
10:00+3всв4986100 0.0 1021388
13:00+6вюв4775100 0.0 1020545
16:00+6вюв41079100 0.0 1019724
19:00+6юв51283100 0.0 1020626
22:00+6юв51383100 0.0 1019709